Springfield, VT

10:07 PM EDT on April 29, 2017 (GMT -0400)
Hartness State

Weather History for KVSF - September, 2013

Change the Weather History Date:

Saturday, September 21, 2013

  Actual Average Record
Temperature  
Mean Temperature 60 °F 57 °F  
Max Temperature 73 °F 69 °F 80 °F (2002)
Min Temperature 46 °F 45 °F 35 °F (1997)
Degree Days  
Heating Degree Days 5 8  
Month to date heating degree days 137 103  
Since 1 July heating degree days 182 158  
Cooling Degree Days 0 0  
Month to date cooling degree days 42 21  
Year to date cooling degree days 495 342  
Growing Degree Days 10 (Base 50)    
Moisture  
Dew Point 55 °F    
Average Humidity 77    
Maximum Humidity 100    
Minimum Humidity 53    
Precipitation  
Precipitation 0.14 in 0.13 in 0.77 in (2001)
Month to date precipitation 2.61 2.40  
Year to date precipitation 30.09 30.77  
Sea Level Pressure  
Sea Level Pressure 29.87 in    
Wind  
Wind Speed 7 mph (South)    
Max Wind Speed 18 mph    
Max Gust Speed 25 mph    
Visibility 8 miles    
Events Fog , Rain    
T = Trace of Precipitation, MM = Missing Value Source: NWS Daily Summary

Daily Weather History Graph

Daily Weather History Graph

Search for Another Location

Airport or City:

Trip Planner

Search our weather history database for the weather conditions in past years. The results will help you decide how hot, cold, wet, or windy it might be!

Date:

Astronomy

Sep. 21, 2013 Rise Set
Actual Time 6:36 AM EDT 6:48 PM EDT
Civil Twilight 6:07 AM EDT 7:17 PM EDT
Nautical Twilight 5:34 AM EDT 7:50 PM EDT
Astronomical Twilight 5:00 AM EDT 8:24 PM EDT
Moon 7:52 PM EDT (9/21) 8:57 AM EDT (9/21)
Length of Visible Light 13h 09m
Length of Day
12h 12m
Waning Gibbous, 94% of the Moon is Illuminated
Sep 21
Waning Gibbous
Sep 26
Last Quarter
Oct 4
New
Oct 11
First Quarter
Oct 18
Full

Hourly Weather History & Observations

Time (EDT) Temp. Dew Point Humidity Pressure Visibility Wind Dir Wind Speed Gust Speed Precip Events Conditions
12:35 AM 50.0 °F 48.2 °F 94% 30.00 in 5.0 mi Calm Calm - N/A   Scattered Clouds
12:54 AM 48.9 °F 48.0 °F 97% 30.01 in 10.0 mi Calm Calm - N/A   Partly Cloudy
1:54 AM 48.0 °F 46.9 °F 96% 30.01 in 10.0 mi Calm Calm - N/A   Clear
1:59 AM 48.2 °F 46.4 °F 93% 30.01 in 1.2 mi Calm Calm - N/A   Partly Cloudy
2:03 AM 46.4 °F 46.4 °F 100% 30.01 in 0.2 mi Calm Calm - N/A Fog Fog
2:14 AM 46.4 °F 46.4 °F 100% 30.00 in 1.5 mi Calm Calm - N/A   Scattered Clouds
2:21 AM 46.4 °F 46.4 °F 100% 30.01 in 9.0 mi Calm Calm - N/A   Scattered Clouds
2:54 AM 46.0 °F 46.0 °F 100% 30.00 in 9.0 mi Calm Calm - N/A   Partly Cloudy
3:54 AM 46.0 °F 45.0 °F 96% 29.98 in 9.0 mi Calm Calm - N/A   Partly Cloudy
4:16 AM 46.4 °F 46.4 °F 100% 29.98 in 10.0 mi Calm Calm - N/A   Mostly Cloudy
4:54 AM 50.0 °F 48.9 °F 96% 29.97 in 9.0 mi Calm Calm - N/A   Overcast
5:14 AM 51.8 °F 51.8 °F 100% 29.97 in 8.0 mi WSW 3.5 mph - N/A   Overcast
5:54 AM 52.0 °F 51.1 °F 97% 29.97 in 7.0 mi Calm Calm - N/A   Overcast
6:34 AM 53.6 °F 53.6 °F 100% 29.97 in 7.0 mi Calm Calm - N/A   Overcast
6:54 AM 55.0 °F 53.1 °F 93% 29.97 in 5.0 mi Calm Calm - N/A   Overcast
7:54 AM 55.9 °F 54.0 °F 93% 29.96 in 6.0 mi SW 3.5 mph - N/A   Overcast
8:18 AM 57.2 °F 55.4 °F 94% 29.95 in 7.0 mi Calm Calm - N/A   Overcast
8:54 AM 57.9 °F 55.0 °F 90% 29.95 in 8.0 mi Calm Calm - N/A   Overcast
9:14 AM 60.8 °F 55.4 °F 82% 29.94 in 9.0 mi South 8.1 mph - N/A   Overcast
9:51 AM 60.8 °F 55.4 °F 82% 29.92 in 10.0 mi South 5.8 mph - N/A   Scattered Clouds
9:54 AM 61.0 °F 55.0 °F 81% 29.93 in 10.0 mi South 10.4 mph - N/A   Partly Cloudy
10:54 AM 66.0 °F 53.1 °F 63% 29.89 in 10.0 mi SSE 13.8 mph 20.7 mph N/A   Clear
11:54 AM 68.0 °F 52.0 °F 56% 29.87 in 10.0 mi South 13.8 mph 24.2 mph N/A   Clear
12:54 PM 71.1 °F 54.0 °F 55% 29.84 in 10.0 mi SSE 12.7 mph 20.7 mph N/A   Clear
1:54 PM 72.0 °F 55.9 °F 57% 29.82 in 10.0 mi South 11.5 mph 24.2 mph N/A   Partly Cloudy
2:54 PM 73.0 °F 57.9 °F 59% 29.79 in 10.0 mi South 15.0 mph 25.3 mph N/A   Mostly Cloudy
3:54 PM 70.0 °F 59.0 °F 68% 29.77 in 10.0 mi South 8.1 mph 16.1 mph N/A   Overcast
4:31 PM 69.8 °F 60.8 °F 73% 29.76 in 9.0 mi SSE 12.7 mph 19.6 mph N/A   Overcast
4:54 PM 66.0 °F 62.1 °F 87% 29.77 in 2.0 mi South 11.5 mph 21.9 mph 0.02 in Rain Rain
5:09 PM 66.2 °F 62.6 °F 88% 29.76 in 10.0 mi South 8.1 mph 18.4 mph 0.01 in   Overcast
5:54 PM 66.0 °F 63.0 °F 90% 29.75 in 10.0 mi South 8.1 mph - 0.01 in   Overcast
6:07 PM 66.2 °F 62.6 °F 88% 29.75 in 10.0 mi South 8.1 mph - 0.00 in Rain Light Rain
6:54 PM 66.0 °F 63.0 °F 90% 29.73 in 10.0 mi South 10.4 mph - 0.01 in   Overcast
7:36 PM 66.2 °F 62.6 °F 88% 29.73 in 10.0 mi South 6.9 mph - 0.00 in Rain Light Rain
7:54 PM 66.0 °F 63.0 °F 90% 29.73 in 10.0 mi SSE 5.8 mph - 0.00 in   Overcast
8:54 PM 66.0 °F 62.1 °F 87% 29.72 in 10.0 mi South 3.5 mph - 0.00 in   Overcast
9:54 PM 66.0 °F 61.0 °F 84% 29.70 in 10.0 mi South 8.1 mph - N/A   Overcast
10:14 PM 66.2 °F 60.8 °F 83% 29.70 in 10.0 mi South 9.2 mph - N/A   Overcast
10:54 PM 66.9 °F 61.0 °F 81% 29.68 in 10.0 mi South 8.1 mph - N/A   Overcast
11:54 PM 64.9 °F 63.0 °F 93% 29.66 in 6.0 mi South 6.9 mph - 0.03 in Rain Light Rain